Weather History for Ogden, UT

Change the Weather History Date:

Monday, October 29, 2012

  Actual Average Record
Temperature  
Mean Temperature 56 °F -  
Max Temperature 66 °F 59 °F 78 °F (1933)
Min Temperature 45 °F 34 °F 21 °F (1970)
Degree Days  
Heating Degree Days 10    
Growing Degree Days 6 (Base 50)    
Moisture  
Dew Point 34 °F    
Average Humidity 50    
Maximum Humidity 68    
Minimum Humidity 24    
Precipitation  
Precipitation 0.00 in - - ()
Sea Level Pressure  
Sea Level Pressure 30.09 in    
Wind  
Wind Speed 7 mph (South)    
Max Wind Speed 12 mph    
Max Gust Speed -    
Visibility 10 miles    
Events      
Averages and records for this station are not official NWS values.
T = Trace of Precipitation, MM = Missing Value Source: NWS Daily Summary

Daily Weather History Graph

Daily Weather History Graph

Search for Another Location

Airport:

Trip Planner

Search our weather history database for the weather conditions in past years. The results will help you decide how hot, cold, wet, or windy it might be!

Date:

Astronomy

Oct. 29, 2012 Rise Set
Actual Time 7:56 AM MDT 6:26 PM MDT
Civil Twilight 7:27 AM MDT 6:54 PM MDT
Nautical Twilight 6:55 AM MDT 7:27 PM MDT
Astronomical Twilight 6:23 AM MDT 7:59 PM MDT
Moon 6:20 PM MDT (10/29) 7:50 AM MDT (10/29)
Length of Visible Light 11h 27m
Length of Day
10h 30m
Full, 100% of the Moon is Illuminated
Oct 29
Full
Oct 29
Full
Nov 6
Last Quarter
Nov 13
New
Nov 20
First Quarter

Hourly Weather History & Observations

Time (MDT) Temp. Windchill Dew Point Humidity Pressure Visibility Wind Dir Wind Speed Gust Speed Precip Events Conditions
12:53 AM 46.9 °F - 36.0 °F 66% 30.06 in 10.0 mi South 5.8 mph - N/A   Clear
1:53 AM 46.9 °F - 36.0 °F 66% 30.07 in 10.0 mi South 8.1 mph - N/A   Clear
2:53 AM 46.0 °F 41.9 °F 35.1 °F 66% 30.06 in 10.0 mi South 8.1 mph - N/A   Clear
3:53 AM 46.0 °F 41.4 °F 35.1 °F 66% 30.05 in 10.0 mi South 9.2 mph - N/A   Clear
4:53 AM 46.0 °F 43.1 °F 35.1 °F 66% 30.06 in 10.0 mi South 5.8 mph - N/A   Clear
5:53 AM 45.0 °F 41.8 °F 35.1 °F 68% 30.06 in 10.0 mi South 5.8 mph - N/A   Clear
6:53 AM 46.0 °F 41.9 °F 35.1 °F 66% 30.09 in 10.0 mi South 8.1 mph - N/A   Clear
7:53 AM 45.0 °F 39.7 °F 35.1 °F 68% 30.10 in 10.0 mi South 10.4 mph - N/A   Clear
8:53 AM 46.0 °F 40.6 °F 35.1 °F 66% 30.12 in 10.0 mi SSE 11.5 mph - N/A   Clear
9:53 AM 52.0 °F - 36.0 °F 54% 30.13 in 10.0 mi South 8.1 mph - N/A   Clear
10:53 AM 55.0 °F - 35.1 °F 47% 30.14 in 10.0 mi South 4.6 mph - N/A   Clear
11:53 AM 61.0 °F - 35.1 °F 38% 30.13 in 10.0 mi South 6.9 mph - N/A   Clear
12:53 PM 64.0 °F - 32.0 °F 30% 30.11 in 10.0 mi SE 6.9 mph - N/A   Clear
1:53 PM 64.9 °F - 30.0 °F 27% 30.10 in 10.0 mi West 4.6 mph - N/A   Clear
2:53 PM 66.0 °F - 30.0 °F 26% 30.09 in 10.0 mi SW 5.8 mph - N/A   Clear
3:53 PM 66.9 °F - 28.9 °F 24% 30.08 in 10.0 mi WSW 6.9 mph - N/A   Clear
4:53 PM 66.0 °F - 28.9 °F 25% 30.07 in 10.0 mi SSW 5.8 mph - N/A   Clear
5:53 PM 63.0 °F - 34.0 °F 34% 30.08 in 10.0 mi SW 3.5 mph - N/A   Clear
6:53 PM 60.1 °F - 33.1 °F 36% 30.09 in 10.0 mi SSE 3.5 mph - N/A   Clear
7:53 PM 53.1 °F - 36.0 °F 52% 30.11 in 10.0 mi SSE 6.9 mph - N/A   Clear
8:53 PM 52.0 °F - 35.1 °F 53% 30.11 in 10.0 mi South 9.2 mph - N/A   Clear
9:53 PM 51.1 °F - 35.1 °F 54% 30.10 in 10.0 mi South 8.1 mph - N/A   Clear
10:53 PM 50.0 °F - 34.0 °F 54% 30.10 in 10.0 mi South 8.1 mph - N/A   Clear
11:53 PM 48.9 °F - 34.0 °F 56% 30.11 in 10.0 mi South 8.1 mph - N/A   Clear